Hourly Data Report for June 21, 2021

MIRAMICHI RCS
NEW BRUNSWICK
Current Station Operator: ECCC - MSC

47°00'34.000" N
65°27'54.000" W
33.00 m
8100989
71744
ACQ

Download Data

Hourly Data (June 2021)
Hourly Data Report for June 21, 2021
TIME
LST
Temp Definition
°C
Dew Point Definition
°C
Rel Hum Definition
%
Precip. Amount Definition
mm

Wind Dir Definition
10's deg

Wind Spd Definition
km/h
Visibility Definition
km
Stn Press Definition
kPa
Hmdx Definition


Wind Chill Definition


Weather Definition


00:00 16.9 14.2 84 LegendMM 26 8   100.20     LegendNANA
01:00 16.6 14.3 86 LegendMM 25 7   100.19     LegendNANA
02:00 15.3 13.4 89 LegendMM 23 2   100.22     LegendNANA
03:00 13.4 12.3 93 LegendMM 26 8   100.25     LegendNANA
04:00 14.1 12.7 92 LegendMM 24 3   100.28     LegendNANA
05:00 13.4 11.8 90 LegendMM 24 3   100.31     LegendNANA
06:00 15.6 14.0 90 LegendMM 22 3   100.34     LegendNANA
07:00 18.4 15.2 82 LegendMM 24 8   100.36     LegendNANA
08:00 21.3 16.0 72 LegendMM 24 4   100.38 26   LegendNANA
09:00 24.4 16.7 62 LegendMM 23 4   100.38 29   LegendNANA
10:00 26.4 16.6 55 LegendMM 21 11   100.37 31   LegendNANA
11:00 27.8 14.4 44 LegendMM 19 19   100.34 31   LegendNANA
12:00 28.7 15.3 44 LegendMM 23 15   100.25 33   LegendNANA
13:00 29.3 14.9 41 LegendMM 23 18   100.19 33   LegendNANA
14:00 30.4 14.3 37 LegendMM 19 26   100.10 34   LegendNANA
15:00 29.7 14.0 38 LegendMM 20 26   100.04 33   LegendNANA
16:00 29.8 15.1 41 LegendMM 21 27   99.96 34   LegendNANA
17:00 28.8 16.9 49 LegendMM 20 26   99.91 34   LegendNANA
18:00 27.6 17.4 54 LegendMM 20 28   99.88 33   LegendNANA
19:00 26.7 17.9 59 LegendMM 20 22   99.94 33   LegendNANA
20:00 25.4 17.8 63 LegendMM 18 21   99.90 31   LegendNANA
21:00 24.1 17.5 67 LegendMM 19 20   99.94 30   LegendNANA
22:00 23.2 18.7 76 LegendMM 20 32   99.97 30   LegendNANA
23:00 22.3 19.4 83 LegendMM 20 33   99.88 29   LegendNANA

Notes on Data Quality.

Legend

  • E = Estimated
  • M = Missing
  • NA = Not Available*
  • [empty] = Indicates an unobserved value
Date modified: